Year,Month,Day,Hour,Minute,Value (Times are PST for temperature in C)
2016,08,28,08,16,13.90
2016,08,28,08,17,13.90
2016,08,28,08,18,13.90
2016,08,28,08,19,13.90
2016,08,28,08,20,13.90
2016,08,28,08,21,13.90
2016,08,28,08,22,13.90
2016,08,28,08,23,13.90
2016,08,28,08,24,14.00
2016,08,28,08,25,14.00
2016,08,28,08,26,14.00
2016,08,28,08,27,14.00
2016,08,28,08,28,14.00
2016,08,28,08,29,14.00
2016,08,28,08,30,14.10
2016,08,28,08,31,14.10
2016,08,28,08,32,14.10
2016,08,28,08,33,14.10
2016,08,28,08,34,14.10
2016,08,28,08,35,14.20
2016,08,28,08,36,14.20
2016,08,28,08,37,14.20
2016,08,28,08,38,14.20
2016,08,28,08,39,14.20
2016,08,28,08,40,14.20
2016,08,28,08,41,14.20
2016,08,28,08,53,14.30
2016,08,28,08,54,14.30
2016,08,28,08,55,14.30
2016,08,28,08,56,14.30
2016,08,28,08,57,14.30
2016,08,28,08,58,14.30
2016,08,28,08,59,14.30
2016,08,28,09,00,14.30
2016,08,28,09,01,14.30
2016,08,28,09,02,14.30
2016,08,28,09,03,14.40
2016,08,28,09,04,14.40
2016,08,28,09,05,14.40
2016,08,28,09,06,14.40
2016,08,28,09,07,14.50
2016,08,28,09,08,14.50
2016,08,28,09,09,14.50
2016,08,28,09,10,14.50
2016,08,28,09,11,14.60
2016,08,28,09,14,14.50
2016,08,28,09,15,14.50
2016,08,28,09,16,14.50
2016,08,28,09,17,14.50
2016,08,28,09,18,14.40
2016,08,28,09,19,14.40
2016,08,28,09,20,14.40
2016,08,28,09,21,14.40
2016,08,28,09,22,14.40
2016,08,28,09,23,14.40
2016,08,28,09,24,14.40
2016,08,28,09,25,14.40
2016,08,28,09,26,14.40
2016,08,28,09,27,14.40
2016,08,28,09,28,14.40
2016,08,28,09,29,14.40
2016,08,28,09,30,14.40
2016,08,28,09,31,14.40
2016,08,28,09,32,14.40
2016,08,28,09,33,14.40
2016,08,28,09,37,14.40
2016,08,28,09,38,14.40
2016,08,28,09,39,14.50
2016,08,28,09,40,14.50
2016,08,28,09,41,14.50
2016,08,28,09,42,14.50
2016,08,28,09,43,14.40
2016,08,28,09,44,14.40
2016,08,28,09,45,14.40
2016,08,28,09,46,14.40
2016,08,28,09,47,14.50
2016,08,28,09,48,14.50
2016,08,28,09,49,14.50
2016,08,28,09,50,14.50
2016,08,28,09,51,14.50
2016,08,28,09,54,14.30
2016,08,28,09,55,14.30
2016,08,28,09,56,14.30
2016,08,28,09,57,14.20
2016,08,28,09,58,14.20
2016,08,28,09,59,14.20
2016,08,28,10,00,14.20
2016,08,28,10,01,14.20
2016,08,28,10,02,14.20
2016,08,28,10,03,14.20
2016,08,28,10,04,14.20
2016,08,28,10,05,14.30
2016,08,28,10,06,14.30
2016,08,28,10,07,14.40
2016,08,28,10,10,14.50
2016,08,28,10,11,14.50
2016,08,28,10,12,14.50
2016,08,28,10,13,14.50
2016,08,28,10,14,14.60
2016,08,28,10,15,14.60
2016,08,28,10,16,14.60
2016,08,28,10,17,14.60
2016,08,28,10,18,14.50
2016,08,28,10,19,14.50
2016,08,28,10,20,14.50
2016,08,28,10,21,14.40
2016,08,28,10,22,14.40
2016,08,28,10,25,14.50
2016,08,28,10,26,14.50
2016,08,28,10,27,14.50
2016,08,28,10,28,14.50
2016,08,28,10,29,14.50
2016,08,28,10,30,14.50
2016,08,28,10,31,14.50
2016,08,28,10,32,14.50
2016,08,28,10,33,14.50
2016,08,28,10,34,14.50
2016,08,28,10,35,14.50
2016,08,28,10,36,14.50
2016,08,28,10,39,14.50
2016,08,28,10,40,14.50
2016,08,28,10,41,14.60
2016,08,28,10,42,14.60
2016,08,28,10,43,14.60
2016,08,28,10,44,14.60
2016,08,28,10,45,14.60
2016,08,28,10,46,14.70
2016,08,28,10,47,14.70
2016,08,28,10,48,14.70
2016,08,28,10,49,14.70
2016,08,28,10,52,14.70
2016,08,28,10,53,14.80
2016,08,28,10,54,14.80
2016,08,28,10,55,14.80
2016,08,28,10,56,14.80
2016,08,28,10,57,14.80
2016,08,28,10,58,14.80
2016,08,28,10,59,14.90
2016,08,28,11,00,15.00
2016,08,28,11,01,15.00
2016,08,28,11,02,15.10
2016,08,28,11,03,15.10
2016,08,28,11,06,15.30
2016,08,28,11,07,15.30
2016,08,28,11,08,15.20
2016,08,28,11,09,15.10
2016,08,28,11,10,15.10
2016,08,28,11,11,15.10
2016,08,28,11,12,15.10
2016,08,28,11,13,15.10
2016,08,28,11,14,15.10
2016,08,28,11,15,15.10
2016,08,28,11,16,15.10
2016,08,28,11,19,15.10
2016,08,28,11,20,15.10
2016,08,28,11,21,15.20
2016,08,28,11,22,15.20
2016,08,28,11,23,15.20
2016,08,28,11,24,15.10
2016,08,28,11,25,15.10
2016,08,28,11,26,15.10
2016,08,28,11,27,15.10
2016,08,28,11,28,15.20
2016,08,28,11,32,15.30
2016,08,28,11,33,15.30
2016,08,28,11,34,15.30
2016,08,28,11,35,15.30
2016,08,28,11,36,15.40
2016,08,28,11,37,15.40
2016,08,28,11,38,15.40
2016,08,28,11,39,15.40
2016,08,28,11,40,15.30
2016,08,28,11,41,15.30
2016,08,28,11,42,15.20
2016,08,28,11,45,15.10
2016,08,28,11,46,15.20
2016,08,28,11,47,15.20
2016,08,28,11,48,15.10
2016,08,28,11,49,15.10
2016,08,28,11,50,15.20
2016,08,28,11,51,15.20
2016,08,28,11,52,15.10
2016,08,28,11,53,15.10
2016,08,28,11,57,15.30
2016,08,28,11,58,15.30
2016,08,28,11,59,15.40
2016,08,28,12,00,15.50
2016,08,28,12,01,15.50
2016,08,28,12,02,15.50
2016,08,28,12,03,15.50
2016,08,28,12,04,15.50
2016,08,28,12,05,15.50
2016,08,28,12,08,15.60
2016,08,28,12,09,15.60
2016,08,28,12,10,15.70
2016,08,28,12,11,15.70
2016,08,28,12,12,15.70
2016,08,28,12,13,15.80
2016,08,28,12,14,15.80
2016,08,28,12,15,15.80
2016,08,28,12,16,15.80
2016,08,28,12,17,15.80
2016,08,28,12,20,15.80
2016,08,28,12,21,15.80
2016,08,28,12,22,15.80
2016,08,28,12,23,15.80
2016,08,28,12,24,15.80
2016,08,28,12,25,15.80
2016,08,28,12,26,15.80
2016,08,28,12,27,15.80
2016,08,28,12,30,15.70
2016,08,28,12,31,15.70
2016,08,28,12,32,15.70
2016,08,28,12,33,15.80
2016,08,28,12,34,15.80
2016,08,28,12,35,15.80
2016,08,28,12,36,15.90
2016,08,28,12,37,15.90
2016,08,28,12,38,15.90
2016,08,28,12,41,15.80
2016,08,28,12,42,15.80
2016,08,28,12,43,15.80
2016,08,28,12,44,15.90
2016,08,28,12,45,15.90
2016,08,28,12,46,15.90
2016,08,28,12,47,15.90
2016,08,28,12,48,16.00
2016,08,28,12,51,16.10
2016,08,28,12,52,16.20
2016,08,28,12,53,16.20
2016,08,28,12,54,16.20
2016,08,28,12,55,16.30
2016,08,28,12,56,16.30
2016,08,28,12,57,16.40
2016,08,28,13,00,16.40
2016,08,28,13,01,16.40
2016,08,28,13,02,16.40
2016,08,28,13,03,16.50
2016,08,28,13,04,16.60
2016,08,28,13,05,16.60
2016,08,28,13,06,16.70
2016,08,28,13,07,16.70
2016,08,28,13,08,16.80
2016,08,28,13,09,16.80
2016,08,28,13,10,16.90
2016,08,28,13,11,16.90
2016,08,28,13,12,16.90
2016,08,28,13,13,16.90
2016,08,28,13,14,16.80
2016,08,28,13,15,16.70
2016,08,28,13,16,16.70
2016,08,28,13,17,16.70
2016,08,28,13,18,16.70
2016,08,28,13,19,16.70
2016,08,28,13,20,16.70
2016,08,28,13,21,16.70
2016,08,28,13,22,16.70
2016,08,28,13,23,16.60
2016,08,28,13,24,16.50
2016,08,28,13,25,16.30
2016,08,28,13,26,16.20
2016,08,28,13,27,16.10
2016,08,28,13,28,16.10
2016,08,28,13,29,16.10
2016,08,28,13,30,16.00
2016,08,28,13,31,15.90
2016,08,28,13,32,15.90
2016,08,28,13,33,15.80
2016,08,28,13,34,15.80
2016,08,28,13,35,15.80
2016,08,28,13,36,15.70
2016,08,28,13,37,15.70
2016,08,28,13,38,15.60
2016,08,28,13,39,15.60
2016,08,28,13,40,15.50
2016,08,28,13,41,15.40
2016,08,28,13,42,15.40
2016,08,28,13,43,15.40
2016,08,28,13,44,15.30
2016,08,28,13,45,15.30
2016,08,28,13,46,15.30
2016,08,28,13,47,15.20
2016,08,28,13,48,15.20
2016,08,28,13,49,15.10
2016,08,28,13,50,15.10
2016,08,28,13,51,15.00
2016,08,28,13,52,15.00
2016,08,28,13,53,14.90
2016,08,28,13,54,14.90
2016,08,28,13,55,14.80
2016,08,28,13,56,14.90
2016,08,28,13,57,14.90
2016,08,28,13,58,14.90
2016,08,28,13,59,14.90
2016,08,28,14,00,14.90
2016,08,28,14,01,14.80
2016,08,28,14,02,14.80
2016,08,28,14,03,14.70
2016,08,28,14,04,14.70
2016,08,28,14,05,14.70
2016,08,28,14,06,14.70
2016,08,28,14,07,14.70
2016,08,28,14,08,14.80
2016,08,28,14,09,14.80
2016,08,28,14,10,14.80
2016,08,28,14,11,14.80
2016,08,28,14,12,14.80
2016,08,28,14,13,14.80
2016,08,28,14,14,14.80
2016,08,28,14,15,14.70
2016,08,28,14,16,14.70
2016,08,28,14,17,14.70
2016,08,28,14,18,14.70
2016,08,28,14,19,14.70
2016,08,28,14,20,14.70
2016,08,28,14,21,14.70
2016,08,28,14,22,14.80
2016,08,28,14,23,14.80
2016,08,28,14,24,14.80
2016,08,28,14,25,14.80
2016,08,28,14,26,14.80
2016,08,28,14,27,14.80
2016,08,28,14,28,14.80
2016,08,28,14,29,14.80
2016,08,28,14,30,14.90
2016,08,28,14,31,14.80
2016,08,28,14,32,14.80
2016,08,28,14,33,14.80
2016,08,28,14,34,14.80
2016,08,28,14,35,14.80
2016,08,28,14,36,14.80
2016,08,28,14,37,14.80
2016,08,28,14,38,14.80
2016,08,28,14,39,14.80
2016,08,28,14,40,14.80
2016,08,28,14,41,14.80
2016,08,28,14,42,14.80
2016,08,28,14,43,14.80
2016,08,28,14,44,14.80
2016,08,28,14,45,14.80
2016,08,28,14,46,14.80
2016,08,28,14,47,14.80
2016,08,28,14,48,14.80
2016,08,28,14,49,14.80
2016,08,28,14,50,14.80
2016,08,28,14,51,14.80
2016,08,28,14,52,14.80
2016,08,28,14,53,14.80
2016,08,28,14,54,14.80
2016,08,28,14,55,14.80
2016,08,28,14,56,14.80
2016,08,28,14,57,14.90
2016,08,28,14,58,14.90
2016,08,28,14,59,14.90
2016,08,28,15,00,14.90
2016,08,28,15,01,14.80
2016,08,28,15,02,14.90
2016,08,28,15,03,14.90
2016,08,28,15,04,14.90
2016,08,28,15,05,14.90
2016,08,28,15,06,14.80
2016,08,28,15,07,14.80
2016,08,28,15,08,14.80
2016,08,28,15,09,14.70
2016,08,28,15,10,14.60
2016,08,28,15,11,14.60
2016,08,28,15,12,14.60
2016,08,28,15,13,14.50
2016,08,28,15,14,14.50
2016,08,28,15,15,14.50
2016,08,28,15,16,14.50
2016,08,28,15,17,14.50
2016,08,28,15,18,14.50
2016,08,28,15,19,14.50
2016,08,28,15,20,14.50
2016,08,28,15,21,14.40
2016,08,28,15,22,14.40
2016,08,28,15,23,14.30
2016,08,28,15,24,14.30
2016,08,28,15,25,14.30
2016,08,28,15,26,14.30
2016,08,28,15,27,14.20
2016,08,28,15,28,14.20
2016,08,28,15,29,14.20
2016,08,28,15,30,14.20
2016,08,28,15,31,14.20
2016,08,28,15,32,14.20
2016,08,28,15,33,14.20
2016,08,28,15,34,14.20
2016,08,28,15,35,14.20
2016,08,28,15,36,14.20
2016,08,28,15,37,14.20
2016,08,28,15,38,14.20
2016,08,28,15,39,14.20
2016,08,28,15,40,14.20
2016,08,28,15,41,14.20
2016,08,28,15,42,14.20
2016,08,28,15,43,14.20
2016,08,28,15,44,14.20
2016,08,28,15,45,14.10
2016,08,28,15,46,14.10
2016,08,28,15,47,14.10
2016,08,28,15,48,14.10
2016,08,28,15,49,14.20
2016,08,28,15,50,14.20
2016,08,28,15,51,14.10
2016,08,28,15,52,14.10
2016,08,28,15,53,14.00
2016,08,28,15,54,14.00
2016,08,28,15,55,14.00
2016,08,28,15,56,14.00
2016,08,28,15,57,14.00
2016,08,28,15,58,14.10
